Location: Arrodets-la-Barthe
(43.0306°N, 0.2829°E)
Time: 19:07:38
(UTC+00:00)

Iridium 4 Rocket - Pass Details

Date: 24 October 2021
Orbit: 586 x 903 km, 86.9° (Epoch: 02 December)

Event Time Altitude Azimuth Distance (km) Brightness Sun altitude
Rises 18:39:06 0° 351° (N) 3,004 6.7 -18.4°
Reaches altitude 10° 18:41:20 10° 345° (NNW) 2,131 6.0 -18.8°
Maximum altitude 18:45:52 47° 273° (W) 957 4.4 -19.6°
Drops below altitude 10° 18:50:46 10° 200° (SSW) 2,312 6.2 -20.5°
Sets 18:53:17 0° 195° (SSW) 3,287 6.9 -21.0°
